Time,TemperatureF,DewpointF,PressureIn,WindDirection,WindDirectionDegrees,WindSpeedMPH,WindSpeedGustMPH,Humidity,HourlyPrecipIn,Conditions,Clouds,dailyrainin,SoftwareType,DateUTC
2013-07-01 00:12:00,61.0,42.0,-100.00,East,87,4.0,10.0,50,0.00,,,0.00,,2013-07-01 06:12:00,
2013-07-01 00:24:00,61.0,42.0,-100.00,East,87,4.0,10.0,50,0.00,,,0.00,,2013-07-01 06:24:00,
2013-07-01 00:33:00,61.0,42.0,-100.00,East,87,4.0,10.0,50,0.00,,,0.00,,2013-07-01 06:33:00,
2013-07-01 00:43:00,61.0,42.0,-100.00,East,87,4.0,10.0,50,0.00,,,0.00,,2013-07-01 06:43:00,
2013-07-01 00:51:00,56.0,41.0,-100.00,ESE,123,3.0,11.0,57,0.00,,,-99.99,,2013-07-01 06:51:00,
2013-07-01 01:11:00,56.0,41.0,-100.00,ESE,123,3.0,11.0,57,0.00,,,-99.99,,2013-07-01 07:11:00,
2013-07-01 01:22:00,56.0,41.0,-100.00,ESE,123,3.0,11.0,57,0.00,,,-99.99,,2013-07-01 07:22:00,
2013-07-01 01:33:00,56.0,41.0,-100.00,ESE,123,3.0,11.0,57,0.00,,,-99.99,,2013-07-01 07:33:00,
2013-07-01 01:43:00,56.0,41.0,-100.00,ESE,123,3.0,11.0,57,0.00,,,-99.99,,2013-07-01 07:43:00,
2013-07-01 01:51:00,56.0,41.0,-100.00,East,88,5.0,8.0,58,0.00,,,0.00,,2013-07-01 07:51:00,
2013-07-01 02:11:00,56.0,41.0,-100.00,East,88,5.0,8.0,58,0.00,,,0.00,,2013-07-01 08:11:00,
2013-07-01 02:22:00,56.0,41.0,-100.00,East,88,5.0,8.0,58,0.00,,,0.00,,2013-07-01 08:22:00,
2013-07-01 02:33:00,56.0,41.0,-100.00,East,88,5.0,8.0,58,0.00,,,0.00,,2013-07-01 08:33:00,
2013-07-01 02:42:00,56.0,41.0,-100.00,East,88,5.0,8.0,58,0.00,,,0.00,,2013-07-01 08:42:00,
2013-07-01 02:51:00,55.0,42.0,-100.00,ENE,60,5.0,9.0,61,0.00,,,0.00,,2013-07-01 08:51:00,
2013-07-01 03:11:00,55.0,42.0,-100.00,ENE,60,5.0,9.0,61,0.00,,,0.00,,2013-07-01 09:11:00,
2013-07-01 03:22:00,55.0,42.0,-100.00,ENE,60,5.0,9.0,61,0.00,,,0.00,,2013-07-01 09:22:00,
2013-07-01 03:33:00,55.0,42.0,-100.00,ENE,60,5.0,9.0,61,0.00,,,0.00,,2013-07-01 09:33:00,
2013-07-01 03:43:00,55.0,42.0,-100.00,ENE,60,5.0,9.0,61,0.00,,,0.00,,2013-07-01 09:43:00,
2013-07-01 03:51:00,52.0,41.0,-100.00,ENE,70,5.0,10.0,66,0.00,,,0.00,,2013-07-01 09:51:00,
2013-07-01 04:11:00,52.0,41.0,-100.00,ENE,70,5.0,10.0,66,0.00,,,0.00,,2013-07-01 10:11:00,
2013-07-01 04:22:00,52.0,41.0,-100.00,ENE,70,5.0,10.0,66,0.00,,,0.00,,2013-07-01 10:22:00,
2013-07-01 04:33:00,52.0,41.0,-100.00,ENE,70,5.0,10.0,66,0.00,,,0.00,,2013-07-01 10:33:00,
2013-07-01 04:42:00,52.0,41.0,-100.00,ENE,70,5.0,10.0,66,0.00,,,0.00,,2013-07-01 10:42:00,
2013-07-01 04:51:00,53.0,42.0,-100.00,NE,49,6.0,15.0,65,0.00,,,0.00,,2013-07-01 10:51:00,
2013-07-01 05:11:00,53.0,42.0,-100.00,NE,49,6.0,15.0,65,0.00,,,0.00,,2013-07-01 11:11:00,
2013-07-01 05:22:00,53.0,42.0,-100.00,NE,49,6.0,15.0,65,0.00,,,0.00,,2013-07-01 11:22:00,
2013-07-01 05:33:00,53.0,42.0,-100.00,NE,49,6.0,15.0,65,0.00,,,0.00,,2013-07-01 11:33:00,
2013-07-01 05:43:00,53.0,42.0,-100.00,NE,49,6.0,15.0,65,0.00,,,0.00,,2013-07-01 11:43:00,
2013-07-01 05:51:00,52.0,41.0,-100.00,NE,49,6.0,16.0,67,0.00,,,0.00,,2013-07-01 11:51:00,
2013-07-01 06:11:00,52.0,41.0,-100.00,NE,49,6.0,16.0,67,0.00,,,0.00,,2013-07-01 12:11:00,
2013-07-01 06:21:00,52.0,41.0,-100.00,NE,49,6.0,16.0,67,0.00,,,0.00,,2013-07-01 12:21:00,
2013-07-01 06:33:00,52.0,41.0,-100.00,NE,49,6.0,16.0,67,0.00,,,0.00,,2013-07-01 12:33:00,
2013-07-01 06:43:00,52.0,41.0,-100.00,NE,49,6.0,16.0,67,0.00,,,0.00,,2013-07-01 12:43:00,
2013-07-01 06:51:00,50.0,42.0,-100.00,South,177,1.0,12.0,73,0.00,,,0.00,,2013-07-01 12:51:00,
2013-07-01 07:23:00,50.0,42.0,-100.00,South,177,1.0,12.0,73,0.00,,,0.00,,2013-07-01 13:23:00,
2013-07-01 07:33:00,50.0,42.0,-100.00,South,177,1.0,12.0,73,0.00,,,0.00,,2013-07-01 13:33:00,
2013-07-01 07:43:00,50.0,42.0,-100.00,South,177,1.0,12.0,73,0.00,,,0.00,,2013-07-01 13:43:00,
2013-07-01 07:51:00,51.0,42.0,-100.00,ESE,119,2.0,10.0,72,0.00,,,0.00,,2013-07-01 13:51:00,
2013-07-01 08:11:00,51.0,42.0,-100.00,ESE,119,2.0,10.0,72,0.00,,,0.00,,2013-07-01 14:11:00,
2013-07-01 08:22:00,51.0,42.0,-100.00,ESE,119,2.0,10.0,72,0.00,,,0.00,,2013-07-01 14:22:00,
2013-07-01 08:34:00,51.0,42.0,-100.00,ESE,119,2.0,10.0,72,0.00,,,0.00,,2013-07-01 14:34:00,
2013-07-01 08:43:00,51.0,42.0,-100.00,ESE,119,2.0,10.0,72,0.00,,,0.00,,2013-07-01 14:43:00,
2013-07-01 08:51:00,63.0,44.0,-100.00,NNE,28,4.0,7.0,50,-99.99,,,0.00,,2013-07-01 14:51:00,
2013-07-01 09:11:00,63.0,44.0,-100.00,NNE,28,4.0,7.0,50,-99.99,,,0.00,,2013-07-01 15:11:00,
2013-07-01 09:23:00,63.0,44.0,-100.00,NNE,28,4.0,7.0,50,-99.99,,,0.00,,2013-07-01 15:23:00,
2013-07-01 09:34:00,63.0,44.0,-100.00,NNE,28,4.0,7.0,50,-99.99,,,0.00,,2013-07-01 15:34:00,
2013-07-01 09:43:00,63.0,44.0,-100.00,NNE,28,4.0,7.0,50,-99.99,,,0.00,,2013-07-01 15:43:00,
2013-07-01 09:51:00,74.0,46.0,-100.00,South,171,2.0,8.0,37,0.00,,,0.00,,2013-07-01 15:51:00,
2013-07-01 10:33:00,74.0,46.0,-100.00,South,171,2.0,8.0,37,0.00,,,0.00,,2013-07-01 16:33:00,
2013-07-01 10:44:00,74.0,46.0,-100.00,South,171,2.0,8.0,37,0.00,,,0.00,,2013-07-01 16:44:00,
2013-07-01 10:51:00,79.0,47.0,-100.00,South,182,3.0,7.0,33,0.00,,,0.00,,2013-07-01 16:51:00,
2013-07-01 11:23:00,79.0,47.0,-100.00,South,182,3.0,7.0,33,0.00,,,0.00,,2013-07-01 17:23:00,
2013-07-01 11:33:00,79.0,47.0,-100.00,South,182,3.0,7.0,33,0.00,,,0.00,,2013-07-01 17:33:00,
2013-07-01 11:43:00,79.0,47.0,-100.00,South,182,3.0,7.0,33,0.00,,,0.00,,2013-07-01 17:43:00,
2013-07-01 11:51:00,85.0,46.0,-100.00,WSW,243,4.0,8.0,26,0.00,,,0.00,,2013-07-01 17:51:00,
2013-07-01 12:33:00,85.0,46.0,-100.00,WSW,243,4.0,8.0,26,0.00,,,0.00,,2013-07-01 18:33:00,
2013-07-01 12:43:00,85.0,46.0,-100.00,WSW,243,4.0,8.0,26,0.00,,,0.00,,2013-07-01 18:43:00,
2013-07-01 12:51:00,88.0,42.0,-100.00,WSW,253,5.0,10.0,20,0.00,,,0.00,,2013-07-01 18:51:00,
2013-07-01 13:21:00,88.0,42.0,-100.00,WSW,253,5.0,10.0,20,0.00,,,0.00,,2013-07-01 19:21:00,
2013-07-01 13:33:00,88.0,42.0,-100.00,WSW,253,5.0,10.0,20,0.00,,,0.00,,2013-07-01 19:33:00,
2013-07-01 13:44:00,88.0,42.0,-100.00,WSW,253,5.0,10.0,20,0.00,,,0.00,,2013-07-01 19:44:00,
2013-07-01 15:51:00,92.0,34.0,-100.00,WSW,238,9.0,24.0,13,0.00,,,-99.99,,2013-07-01 21:51:00,
2013-07-01 16:11:00,92.0,34.0,-100.00,WSW,238,9.0,24.0,13,0.00,,,-99.99,,2013-07-01 22:11:00,
2013-07-01 16:23:00,92.0,34.0,-100.00,WSW,238,9.0,24.0,13,0.00,,,-99.99,,2013-07-01 22:23:00,
2013-07-01 16:33:00,92.0,34.0,-100.00,WSW,238,9.0,24.0,13,0.00,,,-99.99,,2013-07-01 22:33:00,
2013-07-01 16:42:00,92.0,34.0,-100.00,WSW,238,9.0,24.0,13,0.00,,,-99.99,,2013-07-01 22:42:00,
2013-07-01 16:51:00,88.0,38.0,-100.00,SW,227,11.0,20.0,17,0.00,,,0.00,,2013-07-01 22:51:00,
2013-07-01 17:11:00,88.0,38.0,-100.00,SW,227,11.0,20.0,17,0.00,,,0.00,,2013-07-01 23:11:00,
2013-07-01 17:22:00,88.0,38.0,-100.00,SW,227,11.0,20.0,17,0.00,,,0.00,,2013-07-01 23:22:00,
2013-07-01 17:33:00,88.0,38.0,-100.00,SW,227,11.0,20.0,17,0.00,,,0.00,,2013-07-01 23:33:00,
2013-07-01 17:43:00,88.0,38.0,-100.00,SW,227,11.0,20.0,17,0.00,,,0.00,,2013-07-01 23:43:00,
2013-07-01 17:51:00,90.0,41.0,-100.00,West,262,5.0,15.0,18,0.00,,,0.00,,2013-07-01 23:51:00,
2013-07-01 18:12:00,90.0,41.0,-100.00,West,262,5.0,15.0,18,0.00,,,0.00,,2013-07-02 00:12:00,
2013-07-01 18:22:00,90.0,41.0,-100.00,West,262,5.0,15.0,18,0.00,,,0.00,,2013-07-02 00:22:00,
2013-07-01 18:33:00,90.0,41.0,-100.00,West,262,5.0,15.0,18,0.00,,,0.00,,2013-07-02 00:33:00,
2013-07-01 18:43:00,90.0,41.0,-100.00,West,262,5.0,15.0,18,0.00,,,0.00,,2013-07-02 00:43:00,
2013-07-01 18:51:00,86.0,41.0,-100.00,SW,222,4.0,16.0,21,0.00,,,0.00,,2013-07-02 00:51:00,
2013-07-01 19:22:00,86.0,41.0,-100.00,SW,222,4.0,16.0,21,0.00,,,0.00,,2013-07-02 01:22:00,
2013-07-01 19:33:00,86.0,41.0,-100.00,SW,222,4.0,16.0,21,0.00,,,0.00,,2013-07-02 01:33:00,
2013-07-01 19:43:00,86.0,41.0,-100.00,SW,222,4.0,16.0,21,0.00,,,0.00,,2013-07-02 01:43:00,
2013-07-01 19:51:00,82.0,46.0,-100.00,SW,216,2.0,9.0,28,0.00,,,0.00,,2013-07-02 01:51:00,
2013-07-01 20:22:00,82.0,46.0,-100.00,SW,216,2.0,9.0,28,0.00,,,0.00,,2013-07-02 02:22:00,
2013-07-01 20:33:00,82.0,46.0,-100.00,SW,216,2.0,9.0,28,0.00,,,0.00,,2013-07-02 02:33:00,
2013-07-01 20:43:00,82.0,46.0,-100.00,SW,216,2.0,9.0,28,0.00,,,0.00,,2013-07-02 02:43:00,
2013-07-01 20:51:00,73.0,50.0,-100.00,NW,315,1.0,6.0,45,0.00,,,0.00,,2013-07-02 02:51:00,
2013-07-01 21:12:00,73.0,50.0,-100.00,NW,315,1.0,6.0,45,0.00,,,0.00,,2013-07-02 03:12:00,
2013-07-01 21:24:00,73.0,50.0,-100.00,NW,315,1.0,6.0,45,0.00,,,0.00,,2013-07-02 03:24:00,
2013-07-01 21:32:00,73.0,50.0,-100.00,NW,315,1.0,6.0,45,0.00,,,0.00,,2013-07-02 03:32:00,
2013-07-01 21:43:00,73.0,50.0,-100.00,NW,315,1.0,6.0,45,0.00,,,0.00,,2013-07-02 03:43:00,
2013-07-01 21:51:00,67.0,49.0,-100.00,South,185,0.0,4.0,52,0.00,,,0.00,,2013-07-02 03:51:00,
2013-07-01 22:22:00,67.0,49.0,-100.00,South,185,0.0,4.0,52,0.00,,,0.00,,2013-07-02 04:22:00,
2013-07-01 22:32:00,67.0,49.0,-100.00,South,185,0.0,4.0,52,0.00,,,0.00,,2013-07-02 04:32:00,
2013-07-01 22:42:00,67.0,49.0,-100.00,South,185,0.0,4.0,52,0.00,,,0.00,,2013-07-02 04:42:00,
2013-07-01 22:51:00,64.0,47.0,-100.00,WSW,237,2.0,4.0,54,0.00,,,0.00,,2013-07-02 04:51:00,
2013-07-01 23:11:00,64.0,47.0,-100.00,WSW,237,2.0,4.0,54,0.00,,,0.00,,2013-07-02 05:11:00,
2013-07-01 23:22:00,64.0,47.0,-100.00,WSW,237,2.0,4.0,54,0.00,,,0.00,,2013-07-02 05:22:00,
2013-07-01 23:32:00,64.0,47.0,-100.00,WSW,237,2.0,4.0,54,0.00,,,0.00,,2013-07-02 05:32:00,
2013-07-01 23:43:00,64.0,47.0,-100.00,WSW,237,2.0,4.0,54,0.00,,,0.00,,2013-07-02 05:43:00,
2013-07-01 23:51:00,61.0,47.0,-100.00,South,185,1.0,3.0,60,0.00,,,0.00,,2013-07-02 05:51:00,